Regional Weather Roundup
Issued by NWS

Home | Current Version | Previous Version | Text Only | Print | Product List | Glossary On
Versions: 1 2 3 4 5 6 7 8 9 10 11 12 13 14 15 16 17 18 19 20 21 22 23 24 25 26 27 28 29 30 31 32 33 34 35 36 37 38 39 40 41 42 43 44 45 46 47 48 49 50
000
ASUS43 KMPX 211910
RWRMN
WEATHER ROUNDUP FOR MINNESOTA
NATIONAL WEATHER SERVICE TWIN CITIES/CHANHASSEN MN
100 PM CST TUE NOV 21 2017


NOTE: "FAIR" INDICATES FEW OR NO CLOUDS BELOW 12,000 FEET WITH NO
SIGNIFICANT WEATHER AND/OR OBSTRUCTIONS TO VISIBILITY. N/A MEANS
CURRENT SKY AND/OR WEATHER CONDITIONS ARE NOT AVAILABLE.

MNZ060>063-068>070-212000-
   Twin Cities Metro

CITY           SKY/WX    TMP DP  RH WIND       PRES   REMARKS
TWIN CITIES    MOSUNNY   27  11  51 NW20G28   30.12R WCI  13
ST PAUL        MOSUNNY   27  11  51 NW20G28   30.13R WCI  13
CRYSTAL        SUNNY     27   8  44 NW16G24   30.11R WCI  15
BLAINE         MOSUNNY   28  12  50 NW18      30.10R WCI  16
LAKEVILLE      SUNNY     27  12  54 W21G26    30.11R WCI  13
EDEN PRAIRIE   SUNNY     27  10  49 NW14G28   30.12R WCI  16
SOUTH ST PAUL  MOSUNNY   28  11  49 NW18G29   30.11R WCI  15
LAKE ELMO      PTSUNNY   28  14  54 NW15      30.10R WCI  17
$$
MNZ001>005-007-008-013>017-022>024-027-028-212000-
   Northwest Minnesota

CITY           SKY/WX    TMP DP  RH WIND       PRES   REMARKS
BEMIDJI        FLURRIES  17   9  70 NW17      30.17R WCI   1
HALLOCK        CLOUDY    19  10  68 NW16G23   30.27R WCI   5
ROSEAU         LGT SNOW  19  12  73 W12G17    30.20R WCI   7
WARROAD        PTSUNNY   18  10  73 W14       30.18R WCI   4
THIEF RVR FALL LGT SNOW  16  10  77 NW23      30.25R WCI  -2
CROOKSTON      FLURRIES  18  10  73 N23       30.29S WCI   0
FOSSTON        LGT SNOW  16   9  73 NW18G32   30.23R WCI  -1
DETROIT LAKES  FLURRIES  19  12  73 NW21G30   30.24R WCI   3
MOORHEAD       PTSUNNY   21   9  58 NW21      30.30R WCI   6
PARK RAPIDS    SUNNY     21   9  59 NW20G29   30.16R WCI   6
MAHNOMEN       FLURRIES  18  10  69 NW22G31   30.24R WCI   1
$$
MNZ006-009>011-018-025>026-212000-
   North Central Minnesota

CITY           SKY/WX    TMP DP  RH WIND       PRES   REMARKS
BAUDETTE       LGT SNOW  17  10  74 NW16G30   30.13R WCI   2
FLAG ISLAND    CLOUDY    18  10  73 W18G24    30.12R WCI   2
INTL FALLS     FLURRIES  16   7  67 W15       30.09R WCI   1
WASKISH        CLOUDY    18   9  68 NW14G20   30.16R WCI   4
BIG FORK       FLURRIES  18   9  68 W7        30.10R WCI   8
LONGVILLE      PTSUNNY   21  10  63 NW10G20   30.13R WCI  10
GRAND RAPIDS   MOSUNNY   19   9  65 NW21G26   30.10R WCI   3
CRANE LAKE     FLURRIES  16   9  73 NW7G17    30.07R WCI   6
ORR            CLOUDY    14   5  67 NW17G25   30.04R WCI  -3
COOK           FLURRIES  16   9  73 NW12G17   30.06R WCI   3
WALKER         FAIR      19   8  60 W16G24    30.14R WCI   5
$$
MNZ012-019>021-037-212000-
   Northeast Minnesota

CITY           SKY/WX    TMP DP  RH WIND       PRES   REMARKS
DULUTH         MOSUNNY   22   9  57 NW14G28   30.00R WCI   9
ELY            CLOUDY    16   7  67 NW12G22   30.00R WCI   3
HIBBING        CLOUDY    19   9  65 NW23G29   30.05R WCI   2
EVELETH        PTSUNNY   18   7  62 NW13G22   30.05R WCI   4
DULUTH HARBOR  SUNNY     27  10  50 NW15G21   30.06R WCI  15
TWO HARBORS    MOSUNNY   28  12  50 W8        29.99R WCI  20
SILVER BAY     MOSUNNY   21   9  58 NW10G20   29.98R WCI  10
GRAND MARAIS     N/A     23   9  55 N8        29.97R WCI  14
G MARAIS ARPRT FLURRIES  16   3  57 NW12G20   29.86R WCI   3
$$
MNZ029>031-032-039>041-046>048-054>057-064-212000-
   West Central Minnesota

CITY           SKY/WX    TMP DP  RH WIND       PRES   REMARKS
FERGUS FALLS   MOSUNNY   19   9  63 NW22G28   30.30R WCI   3
WHEATON        SUNNY     23   7  50 NW20G25   30.31R WCI   8
MORRIS         SUNNY     23   9  54 NW25G32   30.25R WCI   7
ALEXANDRIA     SUNNY     21   9  59 NW22G29   30.21R WCI   5
ELBOW LAKE     FAIR      20   9  63 W25G31    30.26R HAZE    WCI   2
WADENA         SUNNY     18   9  68 W17G30    30.20R WCI   2
GLENWOOD       SUNNY     21  10  63 NW18      30.21R WCI   6
APPLETON       SUNNY     25   7  46 NW21G28   30.27R WCI  10
BENSON         SUNNY     25   7  46 N24G31    30.26R WCI   9
ORTONVILLE     SUNNY     23   9  54 MISG      30.28R
MADISON        SUNNY     27  10  50 NW23G31   30.29R WCI  12
WILLMAR        FAIR      25  10  54 NW25G31   30.22R WCI   9
$$
MNZ033>034-036-042>043-049>051-058-059-212000-
   Central Minnesota

CITY           SKY/WX    TMP DP  RH WIND       PRES   REMARKS
ST CLOUD       SUNNY     25   9  50 NW17G25   30.15R WCI  12
SAUK CENTRE    FAIR      22   9  57 NW20      30.18R WCI   7
PAYNESVILLE    SUNNY     24  12  59 NW15G30   30.18R WCI  12
AITKIN         SUNNY     21   9  58 NW13G21   30.09R WCI   9
PINE RIVER     SUNNY     21   9  58 NW15      30.16R WCI   8
BRAINERD       SUNNY     24   6  46 NW12      30.13R WCI  13
STAPLES        SUNNY     21   7  53 NW17      30.16R WCI   7
LONG PRAIRIE   FAIR      23   9  54 W15       30.17R WCI  10
LITTLE FALLS   SUNNY     27   0  31 NW14G20   30.15R WCI  15
LITCHFIELD     SUNNY     27  10  50 NW17G25   30.17R WCI  14
BUFFALO        SUNNY     26  10  51 W16G22    30.16R WCI  13
MAPLE LAKE     SUNNY     27  12  55 NW14G21   30.16R WCI  15
HUTCHINSON     SUNNY     27  13  55 NW22G30   30.17R WCI  12
$$
MNZ037-044-045-052-053-212000-
   East Central Minnesota

CITY           SKY/WX    TMP DP  RH WIND       PRES   REMARKS
PRINCETON      SUNNY     28  10  47 W16G23    30.13R WCI  17
MORA           SUNNY     27  12  54 NW16G25   30.11R WCI  14
CAMBRIDGE      SUNNY     28  14  54 NW16G23   30.11R WCI  17
RUSH CITY      SUNNY     27  10  50 NW12G22   30.09R WCI  16
MOOSE LAKE     SUNNY     27   9  46 NW9G17    30.05R WCI  17
HINCKLEY       FAIR      28  10  47 NW18G24   30.08R WCI  16
CLOQUET        SUNNY     23   7  50 NW18G26   30.03R WCI   9
MCGREGOR       SUNNY     27  10  50 NW12G21   30.08R WCI  16
$$
MNZ071>073-080-081-089-090-097-098-212000-
   Southwest Minnesota

CITY           SKY/WX    TMP DP  RH WIND       PRES   REMARKS
MONTEVIDEO     SUNNY     27   9  46 N22G30    30.26R WCI  12
GRANITE FALLS  SUNNY     27  11  52 NW24G33   30.27R WCI  12
CANBY          SUNNY     27   8  45 NW21G30   30.29R WCI  13
MARSHALL       SUNNY     25  10  53 N25G33    30.25R WCI   9
REDWOOD FALLS  SUNNY     26   7  44 NW20G33   30.21R WCI  12
OLIVIA         SUNNY     27  12  54 NW18G29   30.21R WCI  13
PIPESTONE      SUNNY     23   9  54 N18G32    30.23R WCI   9
WINDOM         SUNNY     27   9  46 NW29G35   30.18R WCI  11
WORTHINGTON    SUNNY     26  10  50 NW28G33   30.21R WCI  10
JACKSON        SUNNY     27  10  50 NW25G39   30.18R WCI  11
SLAYTON        SUNNY     25   9  50 NW22G32   30.22R WCI  10
$$
MNZ065>067-074>077-082>085-091>093-212000-
   South Central Minnesota

CITY           SKY/WX    TMP DP  RH WIND       PRES   REMARKS
MANKATO        MOSUNNY   25  12  58 NW24G30   30.15R WCI   9
NEW ULM        SUNNY     27   9  46 NW24G32   30.17R WCI  12
ST JAMES       SUNNY     27  10  50 NW22G33   30.19R WCI  12
FAIRMONT       SUNNY     26  12  55 NW30G38   30.16R WCI  10
GLENCOE        SUNNY     27  12  51 NW21G29   30.15R WCI  14
FARIBAULT      SUNNY     27  12  54 W16G28    30.11R WCI  14
OWATONNA       MOSUNNY   28  16  59 NW24      30.11R WCI  14
WASECA         MOSUNNY   30  16  55 NW26      30.14R WCI  16
ALBERT LEA     SUNNY     27  12  54 NW15G33   30.10R WCI  15
$$
MNZ078>079-086>088-094>096-212000-
   Southeast Minnesota

CITY           SKY/WX    TMP DP  RH WIND       PRES   REMARKS
ROCHESTER      SUNNY     27  14  58 NW18G31   30.05R WCI  14
RED WING       MOSUNNY   28   9  43 NW17G24   30.08R WCI  16
STANTON        MOSUNNY   29  13  51 NW22      30.10R WCI  15
DODGE CENTER   SUNNY     27  12  54 NW24G30   30.06R WCI  12
WINONA         MOSUNNY   30  14  51 NW16G30   30.06R WCI  19
AUSTIN         MOSUNNY   28  14  54 NW23G30   30.08R WCI  14
PRESTON        SUNNY     27  12  53 NW21G26   30.04R WCI  13
$$
ABBREVIATIONS USED IN REMARKS
   TC - TEMPERATURES IN CELSIUS
  WCI - WIND CHILL INDEX
   HX - HEAT INDEX
  VSB - VISIBILITY
$$




USA.gov is the U.S. government's official web portal to all federal, state and local government web resources and services.